Location: �perlecques
(50.8057°N, 2.1521°E)
Time: 16:51:34
(UTC+00:00)

KKS-1 - Pass Details

Date: 02 April 2023
Orbit: 633 x 644 km, 98.2° (Epoch: 03 June)

Event Time Altitude Azimuth Distance (km) Brightness Sun altitude
Rises 22:41:24 0° 13° (NNE) 2,944 ? -31.9°
Reaches altitude 10° 22:43:36 10° 13° (NNE) 2,031 ? -32.0°
Enters shadow 22:45:35 26° 12° (NNE) 1,251 ? -32.1°
